STARLINK-35092, 65342

Orbit data source: Space-Track

STARLINK-35092, 65342 is a payload satellite owned by SpaceX/Seattle (US) in LEO that was launched on Wed, 27 Aug 2025 UTC via an FALCON 9 launch vehicle from the Air Force Eastern Test Range (AFETR). Payload-class satellites include a variety of spacecraft equipped with specific instruments for various scientific and technological missions. These include communications satellites like Starlink; space stations such as the ISS; scientific satellites like the Hubble; Earth observation satellites from companies like Planet Labs, Umbra, and HawkEye 360; GPS; miniature CubeSats for education and research; and military/defense satellites.

Loading next visibility...
Identifier
65342, 2025-189V
Orbit
LEO
Country
Flag of USUS
Related business
Manufacturer
SpaceX/Seattle
Mission
Operational Commercial Communications
Bus & Motor
STARLINK V2MO, Unknown motor
Mass
575 kg wet, ~530 kg dry
Launch date (UTC)
2025-08-27 (10 months ago)
Launch vehicle
FALCON 9
Launch site
Air Force Eastern Test Range (AFETR)
Object type
Payload
Rocket body
Debris
Shape & HBR
Box + 2 Pan, 17.7 m
Radar Cross Section
36.964 m², Large (>1 m²)

Expand to show TLE details & history
Last TLE update: 22 hours ago

TLE from 22 hours ago
0 STARLINK-35092
1 65342U 25189V   26170.94499409  .00016091  00000-0  52881-3 0  9993
2 65342  53.1585  90.9957 0001312 101.4846 258.6303 15.31721949 46682
Epoch: 2026-06-19T22:40Z
TLE epoch observation values (Epoch: 2026-06-19T22:40:47.489Z)
Latitude
-0°
Longitude
-157.36887°
Altitude
471.752 km
Speed
7.631 km/s
True Right ascension
06h 03m 58s
True Declination
0° 00' 00"
Sunlit
Object was in daylight at epoch
Visualization orbit readout
Latitude
Unknown
Longitude
Unknown
Altitude
Unknown
Speed
Unknown
Apparent Right ascension
Unknown
Apparent Declination
Unknown
Sunlit
N/A
Visualization observer readout
Local Sidereal Time
07:11:53
Azimuth
Unknown
Elevation
Unknown
Doppler factor
Unknown
Orbital elements
Apogee altitude
471.83 km
Perigee altitude
470.033 km
Semi-major axis
6,849.068 km
Eccentricity
0.00013
Inclination
53.1585°
RAAN
90.9957°
Arg. of periapsis
101.4846°
True anomaly
258.61556°
Mean anomaly
258.6303°
Eccentric anomaly
258.62293°
Mean motion
3.82909 °/min
Orbital period
94.02 mins
BSTAR
0.00052881
Loading maneuver chart data...
Computing Atmospheric mass density...
Loading historical data...
Loading historical data...
Loading historical data...
Loading historical data...
Loading historical data...
Loading historical data...
Loading historical data...

Documentation

Showing up to 5 results
|